[[{"header":{"parameterUnit":"m.s-1","parameterCategory":1,"la1":30.2991,"la2":30.254,"lo1":-89.0895,"lo2":-89.0444,"dy":0.0017,"dx":0.0017,"nx":28,"ny":28,"refTime":"2025-02-03T03:00:00:Z","depth":0,"parameterNumber":2,"parameterNumberName":"U-component_of_WINDS"},"data":[0,0,0,0,0,0,0,0,0,0,0,0,0,0,0,0,0,0,0,0,0,0,0,0,0,0,0,0,0,0,0,0,0,0,0,0,0,0,0,0,0,0,0,0,0,0,0,0,0,0,0,0,0,0,0,0,0,0,-1.4929,-1.493,0,-1.5062,-1.5064,-1.5065,-1.5081,-1.508,-1.5079,-1.5077,-1.5214,-1.5219,-1.5224,0,0,0,0,0,0,0,0,0,0,0,0,0,-1.4687,-1.4691,-1.4928,-1.493,-1.4932,-1.5062,-1.5064,-1.5066,-1.5082,-1.508,-1.5078,-1.5077,-1.5213,-1.5219,-1.5224,0,0,0,0,0,0,0,0,0,0,0,0,0,-1.4803,-1.4693,-1.4928,-1.4955,-1.4959,-1.5062,-1.5064,-1.5066,-1.5082,-1.508,-1.5078,-1.5076,-1.5211,-1.5218,-1.5225,-1.531,0,0,-1.5248,-1.5251,0,0,0,0,0,0,0,0,-1.4797,-1.4812,-1.495,-1.4954,-1.4958,-1.5053,-1.5029,-1.5148,-1.5082,-1.5035,-1.5077,-1.5075,-1.5162,-1.5174,-1.5203,-1.5316,-1.5322,-1.5248,-1.5253,-1.5256,-1.5258,0,0,0,0,0,0,0,-1.4789,-1.4806,-1.4981,-1.4952,-1.4957,-1.4961,-1.4975,-1.5051,-1.5108,-1.5039,-1.5041,-1.5056,-1.5164,-1.5196,-1.5206,-1.5324,-1.5248,-1.5255,-1.5259,-1.5262,-1.5513,-1.5515,0,0,0,0,0,0,-1.4775,-1.48,-1.4977,-1.4985,-1.4871,-1.4967,-1.4983,-1.5025,-1.5107,-1.5118,-1.5058,-1.5057,-1.5184,-1.5198,-1.5211,-1.5315,-1.5256,-1.5263,-1.5267,-1.551,-1.5513,-1.5516,0,0,0,0,0,0,-1.477,-1.4791,-1.4972,-1.4893,-1.4916,-1.4973,-1.502,-1.5028,-1.506,-1.5122,-1.5132,-1.508,-1.5183,-1.5201,-1.5285,-1.532,-1.5266,-1.5273,-1.5508,-1.5511,-1.5514,-1.5523,0,0,0,0,0,0,-1.4763,-1.4789,-1.4822,-1.4894,-1.492,-1.5043,-1.5022,-1.5032,-1.5072,-1.5072,-1.5145,-1.5155,-1.5183,-1.5274,-1.5292,-1.5329,-1.5278,-1.5505,-1.5509,-1.5513,-1.552,-1.5527,-1.5532,0,0,0,0,0,-1.4754,-1.4819,-1.4823,-1.4845,-1.4962,-1.5045,-1.5061,-1.5092,-1.5075,-1.5108,-1.5148,-1.5153,-1.5313,-1.5282,-1.5303,-1.5343,-1.5503,-1.5508,-1.5513,-1.5517,-1.5525,-1.5532,0,0,0,0,0,0,-1.475,-1.4829,-1.4835,-1.4924,-1.4978,-1.5048,-1.5091,-1.5099,-1.5159,-1.5156,-1.5192,-1.5208,-1.5291,-1.5325,-1.529,-1.5428,-1.5406,-1.5416,-1.5403,-1.5411,-1.5417,-1.5406,-1.5284,0,0,0,0,0,-1.476,-1.482,-1.4886,-1.4959,-1.4986,-1.5033,-1.5071,-1.509,-1.5147,-1.517,-1.5216,-1.5271,-1.5334,-1.5374,-1.5436,-1.5525,-1.5541,-1.5563,-1.5569,-1.5573,-1.5581,-1.563,-1.564,-1.5532,-1.5532,-1.5532,0,0,-1.478,-1.483,-1.4867,-1.4959,-1.5003,-1.5065,-1.5052,-1.5119,-1.5165,-1.518,-1.5262,-1.5297,-1.5361,-1.5448,-1.5489,-1.548,-1.5614,-1.558,-1.5583,-1.5588,-1.5637,-1.5647,-1.5656,-1.5536,-1.5535,-1.5535,0,0,-1.4848,-1.4893,-1.4958,-1.5002,-1.5069,-1.51,-1.5116,-1.5185,-1.5209,-1.5291,-1.5304,-1.5359,-1.5467,-1.5512,-1.5549,-1.5634,-1.564,-1.5653,-1.5684,-1.5731,-1.574,-1.5748,-1.5777,-1.5787,-1.566,-1.566,-1.566,0,-1.4865,-1.4958,-1.4991,-1.5056,-1.5096,-1.5113,-1.5179,-1.5221,-1.5304,-1.5331,-1.5319,-1.5454,-1.5499,-1.5596,-1.5617,-1.5646,-1.5665,-1.5644,-1.5736,-1.5744,-1.5752,-1.578,-1.5791,-1.5661,-1.5661,-1.5661,-1.5661,0,-1.4975,-1.504,-1.5085,-1.5164,-1.521,-1.5275,-1.5317,-1.5359,-1.5375,-1.5407,-1.5491,-1.5545,-1.5617,-1.5642,-1.5658,-1.5742,-1.5733,-1.5729,-1.5707,-1.5763,-1.579,-1.5801,-1.5663,-1.5662,-1.5662,-1.5662,0,0,-1.5044,-1.514,-1.5156,-1.5192,-1.5267,-1.5317,-1.5384,-1.5454,-1.5489,-1.5546,-1.5602,-1.5693,-1.5689,-1.573,-1.5751,-1.5793,-1.5856,-1.5783,-1.5785,-1.5794,-1.5951,-1.5953,-1.5965,-1.5861,-1.5863,-1.5865,-1.5945,0,-1.512,-1.5238,-1.5269,-1.537,-1.543,-1.5446,-1.5504,-1.5556,-1.5588,-1.5644,-1.5679,-1.5743,-1.5733,-1.5758,-1.58,-1.5839,-1.5888,-1.5834,-1.5913,-1.5915,-1.5895,-1.598,-1.5983,-1.6056,-1.5956,-1.5958,-1.5959,0,-1.5224,-1.5283,-1.5389,-1.5456,-1.5482,-1.5533,-1.56,-1.5653,-1.5712,-1.5733,-1.5779,-1.5796,-1.5866,-1.5841,-1.5936,-1.5899,-1.5933,-1.5957,-1.5961,-1.5969,-1.594,-1.5989,-1.608,-1.609,-1.5977,-1.5975,-1.5974,0,-1.5263,-1.5368,-1.5446,-1.5476,-1.5556,-1.5591,-1.5626,-1.5683,-1.5723,-1.5782,-1.5808,-1.5874,-1.591,-1.596,-1.5994,-1.5973,-1.6087,-1.6065,-1.6105,-1.6104,-1.6128,-1.6125,-1.6224,-1.6151,-1.6151,-1.6151,-1.615,0,-1.5344,-1.5408,-1.5464,-1.5511,-1.5583,-1.5618,-1.5689,-1.5724,-1.5775,-1.5829,-1.5848,-1.5899,-1.5941,-1.5997,-1.6025,-1.6099,-1.6116,-1.6134,-1.614,-1.6131,-1.6129,-1.6153,-1.6149,-1.6154,-1.6153,-1.6152,-1.6152,0,-1.5398,-1.5438,-1.5523,-1.5592,-1.561,-1.5661,-1.5719,-1.5766,-1.5798,-1.5867,-1.5885,-1.5937,-1.6004,-1.6043,-1.6128,-1.6146,-1.6228,-1.6233,-1.6208,-1.6211,-1.6248,-1.6244,-1.6365,-1.6383,-1.6299,-1.63,-1.63,0,-1.5447,-1.5497,-1.557,-1.5608,-1.5643,-1.5704,-1.5745,-1.5781,-1.5823,-1.5894,-1.5932,-1.6,-1.6057,-1.6163,-1.6208,-1.6273,-1.6278,-1.6316,-1.6288,-1.6278,-1.6278,-1.6274,-1.6278,-1.6321,-1.6322,-1.6322,-1.6323,0,-1.5529,-1.5546,-1.5604,-1.567,-1.5719,-1.5772,-1.5825,-1.5855,-1.59,-1.5946,-1.6015,-1.6059,-1.6145,-1.6212,-1.6281,-1.6316,-1.6327,-1.6331,-1.6344,-1.6335,-1.6318,-1.6327,-1.622,-1.6328,-1.6328,-1.6327,-1.6327,-1.6327,-1.5581,-1.5626,-1.5685,-1.5749,-1.5793,-1.5842,-1.5889,-1.5927,-1.5985,-1.6058,-1.6077,-1.6149,-1.6206,-1.6299,-1.6336,-1.6393,-1.6386,-1.6405,-1.6409,-1.6413,-1.6413,-1.631,-1.6406,-1.6406,-1.6405,-1.6405,-1.6405,0,-1.5663,-1.5702,-1.5761,-1.5834,-1.5885,-1.5891,-1.595,-1.5991,-1.6055,-1.6107,-1.6162,-1.6241,-1.6306,-1.6356,-1.6423,-1.6459,-1.6465,-1.6475,-1.6472,-1.648,-1.6416,-1.6398,-1.6468,-1.6468,-1.6468,-1.6468,-1.6468,-1.6468,-1.5711,-1.5787,-1.5811,-1.5909,-1.5947,-1.6018,-1.6051,-1.6096,-1.6138,-1.6225,-1.6279,-1.6312,-1.6363,-1.6434,-1.6494,-1.6507,-1.653,-1.6539,-1.6552,-1.6491,-1.6484,-1.6478,-1.6461,-1.6544,-1.6544,-1.6611,-1.6612,-1.6612]},{"header":{"parameterUnit":"m.s-1","parameterCategory":1,"la1":30.2991,"la2":30.254,"lo1":-89.0895,"lo2":-89.0444,"dy":0.0017,"dx":0.0017,"nx":28,"ny":28,"refTime":"2025-02-03T03:00:00:Z","depth":0,"parameterNumber":3,"parameterNumberName":"V-component_of_WINDS"},"data":[0,0,0,0,0,0,0,0,0,0,0,0,0,0,0,0,0,0,0,0,0,0,0,0,0,0,0,0,0,0,0,0,0,0,0,0,0,0,0,0,0,0,0,0,0,0,0,0,0,0,0,0,0,0,0,0,0,0,-0.224,-0.2239,0,-0.2121,-0.212,-0.2119,-0.2065,-0.2065,-0.2065,-0.2065,-0.1934,-0.193,-0.1927,0,0,0,0,0,0,0,0,0,0,0,0,0,-0.2411,-0.2408,-0.224,-0.2239,-0.2237,-0.2122,-0.212,-0.2118,-0.2064,-0.2065,-0.2065,-0.2065,-0.1935,-0.1931,-0.1927,0,0,0,0,0,0,0,0,0,0,0,0,0,-0.2318,-0.2407,-0.2241,-0.2197,-0.2192,-0.2122,-0.212,-0.2118,-0.2064,-0.2065,-0.2065,-0.2065,-0.1937,-0.1931,-0.1926,-0.1888,0,0,-0.1909,-0.1907,0,0,0,0,0,0,0,0,-0.2324,-0.2312,-0.2205,-0.22,-0.2194,-0.2108,-0.2132,-0.204,-0.2064,-0.2112,-0.2065,-0.2065,-0.1991,-0.1981,-0.1958,-0.1882,-0.1876,-0.1909,-0.1906,-0.1903,-0.1902,0,0,0,0,0,0,0,-0.233,-0.2317,-0.2193,-0.2203,-0.2197,-0.218,-0.2167,-0.2114,-0.2052,-0.2108,-0.2104,-0.2091,-0.1988,-0.1964,-0.1955,-0.1874,-0.1909,-0.1904,-0.1901,-0.1899,-0.1758,-0.1757,0,0,0,0,0,0,-0.2345,-0.2323,-0.2197,-0.2189,-0.2261,-0.2177,-0.2162,-0.2135,-0.2052,-0.204,-0.2091,-0.2089,-0.1973,-0.1961,-0.195,-0.1898,-0.1903,-0.1898,-0.1895,-0.1758,-0.1757,-0.1757,0,0,0,0,0,0,-0.2349,-0.2334,-0.2202,-0.2255,-0.2237,-0.2173,-0.2144,-0.2133,-0.2108,-0.2039,-0.2027,-0.2078,-0.1972,-0.1957,-0.1904,-0.1893,-0.1896,-0.1891,-0.1759,-0.1758,-0.1757,-0.1797,0,0,0,0,0,0,-0.2354,-0.2336,-0.2324,-0.2255,-0.2234,-0.2161,-0.2143,-0.213,-0.21,-0.2096,-0.2024,-0.2012,-0.1971,-0.1912,-0.1898,-0.1886,-0.1886,-0.1759,-0.1758,-0.1757,-0.1796,-0.1797,-0.1799,0,0,0,0,0,-0.236,-0.2338,-0.2323,-0.2308,-0.2218,-0.216,-0.2148,-0.2104,-0.21,-0.2085,-0.204,-0.2014,-0.1897,-0.1907,-0.1891,-0.1877,-0.176,-0.1759,-0.1758,-0.1795,-0.1797,-0.1799,0,0,0,0,0,0,-0.2404,-0.2328,-0.2311,-0.2267,-0.2221,-0.2152,-0.2132,-0.2108,-0.206,-0.2058,-0.2003,-0.1987,-0.1937,-0.1901,-0.1914,-0.1834,-0.1826,-0.1821,-0.186,-0.1861,-0.1862,-0.1872,-0.1882,0,0,0,0,0,-0.2409,-0.2372,-0.2306,-0.2273,-0.2251,-0.2196,-0.2169,-0.2139,-0.2088,-0.2068,-0.2019,-0.1968,-0.1919,-0.1888,-0.1839,-0.179,-0.1772,-0.1772,-0.1774,-0.1775,-0.1772,-0.1741,-0.1739,-0.1753,-0.1753,-0.1753,0,0,-0.2418,-0.2372,-0.2351,-0.2281,-0.2242,-0.2201,-0.2179,-0.2138,-0.2106,-0.206,-0.2007,-0.197,-0.1908,-0.1857,-0.1831,-0.1825,-0.1764,-0.1774,-0.1775,-0.1771,-0.1739,-0.1738,-0.1737,-0.1753,-0.1753,-0.1753,0,0,-0.2413,-0.2376,-0.2344,-0.2305,-0.2247,-0.221,-0.2203,-0.2137,-0.2111,-0.2057,-0.2021,-0.1981,-0.1899,-0.1856,-0.1824,-0.1801,-0.1775,-0.1787,-0.1793,-0.1764,-0.1763,-0.1761,-0.1752,-0.1749,-0.1784,-0.1784,-0.1784,0,-0.2431,-0.2372,-0.2329,-0.229,-0.2259,-0.2218,-0.2182,-0.2146,-0.2074,-0.2051,-0.2046,-0.1941,-0.1897,-0.1834,-0.1829,-0.1804,-0.1791,-0.1795,-0.1767,-0.1765,-0.1763,-0.1753,-0.175,-0.1785,-0.1785,-0.1785,-0.1785,0,-0.2396,-0.2355,-0.2335,-0.227,-0.2236,-0.2199,-0.2147,-0.2117,-0.209,-0.2053,-0.1997,-0.1942,-0.1881,-0.1864,-0.1836,-0.1796,-0.1793,-0.1778,-0.1768,-0.1764,-0.1754,-0.175,-0.1788,-0.1787,-0.1787,-0.1786,0,0,-0.2416,-0.2328,-0.2321,-0.229,-0.2222,-0.2188,-0.2147,-0.2091,-0.2065,-0.2016,-0.1979,-0.1909,-0.1895,-0.1858,-0.1824,-0.1799,-0.1782,-0.1786,-0.1783,-0.1786,-0.1732,-0.1744,-0.174,-0.1764,-0.1764,-0.1763,-0.1737,0,-0.2402,-0.2332,-0.2291,-0.2235,-0.2196,-0.2155,-0.2119,-0.2072,-0.2035,-0.1993,-0.195,-0.1902,-0.1887,-0.1864,-0.1837,-0.179,-0.177,-0.1792,-0.1726,-0.1724,-0.1743,-0.1735,-0.1748,-0.1726,-0.1733,-0.1732,-0.1731,0,-0.2376,-0.2331,-0.2273,-0.2209,-0.219,-0.2159,-0.2103,-0.2064,-0.2008,-0.1983,-0.1942,-0.1908,-0.186,-0.1854,-0.1785,-0.18,-0.177,-0.1743,-0.1741,-0.1732,-0.1728,-0.1726,-0.1718,-0.1715,-0.1725,-0.1725,-0.1726,0,-0.2396,-0.232,-0.2275,-0.2249,-0.2174,-0.2152,-0.2119,-0.2064,-0.2032,-0.1981,-0.1959,-0.1902,-0.187,-0.1825,-0.1776,-0.1777,-0.1711,-0.1701,-0.1686,-0.1687,-0.1673,-0.1675,-0.166,-0.1656,-0.1656,-0.1656,-0.1656,0,-0.2384,-0.2349,-0.2283,-0.2255,-0.2214,-0.2165,-0.2125,-0.2088,-0.2038,-0.2,-0.196,-0.1924,-0.1861,-0.1816,-0.1777,-0.1724,-0.171,-0.1686,-0.1676,-0.1689,-0.1692,-0.1669,-0.1669,-0.1655,-0.1655,-0.1655,-0.1655,0,-0.2399,-0.2353,-0.2301,-0.2234,-0.2216,-0.2189,-0.2129,-0.2099,-0.206,-0.2011,-0.1997,-0.1934,-0.1879,-0.1826,-0.1751,-0.1724,-0.1671,-0.1658,-0.1691,-0.1685,-0.1673,-0.1674,-0.1642,-0.1634,-0.1636,-0.1636,-0.1636,0,-0.2394,-0.2367,-0.2298,-0.2271,-0.2239,-0.2196,-0.2164,-0.2113,-0.208,-0.2014,-0.199,-0.1933,-0.1885,-0.1797,-0.1743,-0.1685,-0.1669,-0.1662,-0.166,-0.1674,-0.1667,-0.167,-0.1665,-0.1663,-0.1663,-0.1663,-0.1663,0,-0.239,-0.2369,-0.2326,-0.2274,-0.2237,-0.2193,-0.2147,-0.2126,-0.2066,-0.2031,-0.1976,-0.1938,-0.1863,-0.1805,-0.174,-0.1701,-0.1671,-0.1665,-0.1658,-0.1671,-0.1691,-0.1679,-0.1694,-0.1665,-0.1665,-0.1665,-0.1665,-0.1665,-0.2395,-0.2368,-0.2315,-0.2268,-0.2228,-0.2186,-0.2154,-0.2112,-0.2066,-0.2003,-0.1975,-0.1919,-0.1859,-0.177,-0.1732,-0.1684,-0.1677,-0.1667,-0.1665,-0.1663,-0.1665,-0.17,-0.1672,-0.1672,-0.1672,-0.1672,-0.1672,0,-0.2388,-0.2352,-0.2309,-0.2247,-0.2209,-0.2187,-0.2135,-0.2103,-0.2055,-0.2005,-0.1958,-0.1893,-0.1836,-0.1777,-0.1717,-0.169,-0.1674,-0.1675,-0.1676,-0.1667,-0.1676,-0.1688,-0.1689,-0.1689,-0.1689,-0.1689,-0.1689,-0.1689,-0.238,-0.2334,-0.2306,-0.2239,-0.2201,-0.2149,-0.212,-0.208,-0.2039,-0.197,-0.1924,-0.1887,-0.1831,-0.1766,-0.1712,-0.1695,-0.1674,-0.1679,-0.1659,-0.1668,-0.1667,-0.1666,-0.1677,-0.1675,-0.1675,-0.1653,-0.1653,-0.1653]}]]